When you browse on this site, cookies collect data to enhance your experience and personalize the content and advertising you see.
Visit our Privacy Policy to learn more. By continuing to use the site, you agree to this use of cookies and data.
  • In Romania
  • List of Countries
  • For 7 days
  • Water Temperature
  • Satellite Maps
  • Weather Map
  • Weather Widgets
  • user-avatar
    Login

    Hourly Weather Cam Ranh

    Today, 20 April, Saturday

    Time Temperature Precipitation Wind Pressure Humidity
    00:00 +28°C° 0 mm 4 mps 751 mmHg 83%
    01:00 +28°C° 0 mm 4 mps 751 mmHg 83%
    02:00 +28°C° 0 mm 4 mps 751 mmHg 84%
    03:00 +28°C° 0 mm 4 mps 751 mmHg 84%
    04:00 +28°C° 0 mm 4 mps 750 mmHg 84%
    05:00 +29°C° 0 mm 4 mps 751 mmHg 79%
    06:00 +30°C° 0 mm 4 mps 751 mmHg 73%
    07:00 +32°C° 0 mm 4 mps 751 mmHg 68%
    08:00 +35°C° 0 mm 4 mps 751 mmHg 59%
    09:00 +37°C° 0 mm 5 mps 751 mmHg 50%
    10:00 +40°C° 0 mm 5 mps 751 mmHg 42%
    11:00 +41°C° 0 mm 6 mps 751 mmHg 41%
    12:00 +41°C° 0 mm 6 mps 751 mmHg 40%
    13:00 +43°C° 0 mm 7 mps 750 mmHg 39%
    14:00 +41°C° 0 mm 7 mps 750 mmHg 44%
    15:00 +39°C° 0 mm 7 mps 749 mmHg 48%
    16:00 +38°C° 0 mm 7 mps 749 mmHg 53%
    17:00 +35°C° 0 mm 6 mps 749 mmHg 62%
    18:00 +33°C° 0 mm 6 mps 749 mmHg 71%
    19:00 +30°C° 0 mm 5 mps 749 mmHg 80%
    20:00 +30°C° 0 mm 5 mps 750 mmHg 82%
    21:00 +29°C° 0 mm 5 mps 751 mmHg 85%
    22:00 +29°C° 0 mm 5 mps 751 mmHg 87%
    23:00 +29°C° 0 mm 5 mps 751 mmHg 87%

    Tomorrow, 21 April, Sunday

    Time Temperature Precipitation Wind Pressure Humidity
    00:00 +28°C° 0 mm 5 mps 751 mmHg 88%
    01:00 +28°C° 0 mm 5 mps 751 mmHg 88%
    02:00 +28°C° 0 mm 5 mps 751 mmHg 89%
    03:00 +28°C° 0 mm 4 mps 750 mmHg 89%
    04:00 +28°C° 0 mm 4 mps 750 mmHg 90%
    05:00 +29°C° 0 mm 4 mps 751 mmHg 84%
    06:00 +30°C° 0 mm 4 mps 751 mmHg 78%
    07:00 +32°C° 0 mm 4 mps 752 mmHg 72%
    08:00 +34°C° 0 mm 4 mps 752 mmHg 63%
    09:00 +37°C° 0 mm 4 mps 752 mmHg 53%
    10:00 +40°C° 0 mm 4 mps 752 mmHg 44%
    11:00 +40°C° 0 mm 5 mps 752 mmHg 43%
    12:00 +41°C° 0 mm 6 mps 751 mmHg 42%
    13:00 +41°C° 0 mm 6 mps 750 mmHg 41%
    14:00 +40°C° 0 mm 6 mps 750 mmHg 45%
    15:00 +39°C° 0 mm 6 mps 749 mmHg 49%
    16:00 +38°C° 0 mm 6 mps 749 mmHg 53%
    17:00 +35°C° 0 mm 5 mps 749 mmHg 62%
    18:00 +33°C° 0 mm 5 mps 750 mmHg 71%
    19:00 +29°C° 0 mm 4 mps 751 mmHg 80%
    20:00 +29°C° 0 mm 4 mps 751 mmHg 82%
    21:00 +28°C° 0 mm 4 mps 751 mmHg 85%
    22:00 +28°C° 0 mm 4 mps 752 mmHg 88%
    23:00 +28°C° 0 mm 4 mps 752 mmHg 89%

    Day after tomorrow, 22 April, Monday

    Time Temperature Precipitation Wind Pressure Humidity
    00:00 +27°C° 0 mm 3 mps 751 mmHg 91%
    01:00 +27°C° 0 mm 3 mps 751 mmHg 92%
    02:00 +27°C° 0 mm 3 mps 751 mmHg 93%
    03:00 +26°C° 0 mm 3 mps 750 mmHg 95%
    04:00 +26°C° 0 mm 3 mps 750 mmHg 96%
    05:00 +27°C° 0 mm 3 mps 751 mmHg 87%
    06:00 +29°C° 0 mm 2 mps 751 mmHg 78%
    07:00 +30°C° 0 mm 2 mps 752 mmHg 70%
    08:00 +34°C° 0 mm 2 mps 752 mmHg 58%
    09:00 +36°C° 0 mm 3 mps 752 mmHg 47%
    10:00 +39°C° 0 mm 3 mps 752 mmHg 35%
    11:00 +39°C° 0 mm 3 mps 752 mmHg 36%
    12:00 +41°C° 0 mm 4 mps 751 mmHg 38%
    13:00 +41°C° 0 mm 4 mps 751 mmHg 39%
    14:00 +40°C° 0 mm 4 mps 750 mmHg 44%
    15:00 +37°C° 0 mm 4 mps 750 mmHg 49%
    16:00 +36°C° 0 mm 4 mps 749 mmHg 55%
    17:00 +34°C° 0 mm 4 mps 750 mmHg 65%
    18:00 +31°C° 0 mm 3 mps 751 mmHg 74%
    19:00 +29°C° 0 mm 2 mps 752 mmHg 84%
    20:00 +29°C° 0 mm 2 mps 752 mmHg 86%
    21:00 +28°C° 0 mm 2 mps 753 mmHg 89%
    22:00 +28°C° 0 mm 1 mps 753 mmHg 91%
    23:00 +28°C° 0 mm 1 mps 752 mmHg 91%

    23 April, Tuesday

    Time Temperature Precipitation Wind Pressure Humidity
    00:00 +27°C° 0 mm 2 mps 752 mmHg 91%
    01:00 +27°C° 0 mm 2 mps 751 mmHg 91%
    02:00 +27°C° 0 mm 2 mps 751 mmHg 90%
    03:00 +27°C° 0 mm 2 mps 751 mmHg 89%
    04:00 +27°C° 0 mm 1 mps 751 mmHg 88%
    05:00 +28°C° 0 mm 1 mps 752 mmHg 81%
    06:00 +30°C° 0 mm 1 mps 752 mmHg 73%
    07:00 +31°C° 0 mm 1 mps 753 mmHg 65%
    08:00 +33°C° 0 mm 1 mps 753 mmHg 57%
    09:00 +37°C° 0 mm 2 mps 753 mmHg 49%
    10:00 +39°C° 0 mm 2 mps 753 mmHg 41%
    11:00 +39°C° 0 mm 3 mps 753 mmHg 41%
    12:00 +40°C° 0 mm 3 mps 752 mmHg 40%
    13:00 +41°C° 0 mm 4 mps 751 mmHg 39%
    14:00 +40°C° 0 mm 4 mps 751 mmHg 45%
    15:00 +37°C° 0 mm 4 mps 751 mmHg 51%
    16:00 +36°C° 0 mm 4 mps 750 mmHg 57%
    17:00 +34°C° 0 mm 3 mps 751 mmHg 68%
    18:00 +31°C° 0 mm 2 mps 751 mmHg 78%
    19:00 +29°C° 0 mm 2 mps 752 mmHg 89%
    20:00 +28°C° 0 mm 1 mps 752 mmHg 91%
    21:00 +28°C° 0 mm 1 mps 753 mmHg 94%
    22:00 +27°C° 0 mm 1 mps 753 mmHg 96%
    23:00 +27°C° 0 mm 1 mps 753 mmHg 97%

    24 April, Wednesday

    Time Temperature Precipitation Wind Pressure Humidity
    00:00 +27°C° 0 mm 1 mps 752 mmHg 97%
    01:00 +27°C° 0 mm 1 mps 752 mmHg 97%
    02:00 +26°C° 0 mm 1 mps 752 mmHg 96%
    03:00 +26°C° 0 mm 1 mps 752 mmHg 96%
    04:00 +26°C° 0 mm 1 mps 752 mmHg 95%
    05:00 +27°C° 0 mm 1 mps 752 mmHg 86%
    06:00 +29°C° 0 mm 1 mps 753 mmHg 78%
    07:00 +30°C° 0 mm 1 mps 753 mmHg 69%
    08:00 +33°C° 0 mm 1 mps 753 mmHg 59%
    09:00 +35°C° 0 mm 1 mps 753 mmHg 48%
    10:00 +39°C° 0 mm 1 mps 753 mmHg 37%
    11:00 +39°C° 0 mm 2 mps 753 mmHg 36%
    12:00 +40°C° 0 mm 3 mps 752 mmHg 35%
    13:00 +41°C° 0 mm 4 mps 751 mmHg 35%
    14:00 +40°C° 0 mm 4 mps 751 mmHg 40%
    15:00 +37°C° 0 mm 4 mps 751 mmHg 45%
    16:00 +36°C° 0 mm 4 mps 750 mmHg 50%
    17:00 +34°C° 0 mm 3 mps 751 mmHg 62%
    18:00 +31°C° 0 mm 2 mps 751 mmHg 73%
    19:00 +28°C° 0 mm 1 mps 752 mmHg 84%
    20:00 +28°C° 0 mm 1 mps 752 mmHg 87%
    21:00 +28°C° 0 mm 1 mps 753 mmHg 89%
    22:00 +27°C° 0 mm 1 mps 753 mmHg 91%
    23:00 +27°C° 0 mm 1 mps 753 mmHg 91%

    25 April, Thursday

    Time Temperature Precipitation Wind Pressure Humidity
    00:00 +27°C° 0 mm 2 mps 752 mmHg 90%
    01:00 +26°C° 0 mm 2 mps 752 mmHg 90%
    02:00 +26°C° 0 mm 2 mps 752 mmHg 87%
    03:00 +26°C° 0 mm 2 mps 752 mmHg 84%
    04:00 +26°C° 0 mm 2 mps 751 mmHg 81%
    05:00 +28°C° 0 mm 2 mps 752 mmHg 73%
    06:00 +29°C° 0 mm 2 mps 752 mmHg 66%
    07:00 +31°C° 0 mm 1 mps 753 mmHg 58%
    08:00 +34°C° 0 mm 2 mps 753 mmHg 52%
    09:00 +37°C° 0 mm 2 mps 753 mmHg 46%
    10:00 +39°C° 0 mm 2 mps 753 mmHg 39%
    11:00 +39°C° 0 mm 3 mps 752 mmHg 41%
    12:00 +40°C° 0 mm 4 mps 752 mmHg 43%
    13:00 +41°C° 0 mm 5 mps 751 mmHg 45%
    14:00 +38°C° 0 mm 4 mps 751 mmHg 50%
    15:00 +37°C° 0 mm 4 mps 750 mmHg 55%
    16:00 +36°C° 0 mm 4 mps 750 mmHg 60%
    17:00 +34°C° 0 mm 4 mps 751 mmHg 68%
    18:00 +33°C° 0 mm 3 mps 751 mmHg 76%
    19:00 +30°C° 0 mm 3 mps 752 mmHg 84%
    20:00 +29°C° 0 mm 3 mps 752 mmHg 86%
    21:00 +29°C° 0 mm 3 mps 752 mmHg 89%
    22:00 +28°C° 0 mm 2 mps 752 mmHg 91%
    23:00 +28°C° 0 mm 2 mps 752 mmHg 91%
    Show more